Starlink 31585

operational
NORAD ID: 59608 Int'l Des: 2024-080 Owner: SPXS Country: US Constellation: starlink
LEOCIRCULAR

Starlink 31585について

説明を読み込み中...

リアルタイム位置

3D地球を読み込み中...

次回通過

高度履歴

Altitude vs Time

uPlot chart will show altitude changes over time

軌道要素

1 59608U 24080H 25305.95936691 -.00000883 00000-0 -22579-4 0 9995
2 59608 43.0024 35.3118 0001341 278.9419 81.1281 15.27578788 85050
Epoch: Nov 1, 2025 • Age: 22 hours

現在のステータス

高度 495.5 km
速度 7.62 km/s
衛星直下点 -43.16°S, 50.17°W
打ち上げ日 Apr 28, 2024
運用期間 1.5 years
タイプ internet

技術仕様

分類 Payload
質量 730.00 kg
乾燥質量 700.00 kg
総質量 730.00 kg
長さ 0.30 m
直径 4.10 m
スパン 29.00 m
形状 Box + pan
製造者 SPXS
バスタイプ Starlink V2M
フェーズステータス In Orbit
所有者/国 SPXS/US

大規模コンステレーション

Loading constellations...